Wind_Speed
15 14 13 13 14 15 15 16 16 15 14 13 12 11 11 10 9 9 9 10 12 14 16 16 17 16 15 14 13 13 11 11 11 14 17 15 16 16 15 15 13 12 11 11 11 10 8 8 8 7 7 5 5 5 6 6 7 9 12 14 13 13 16 18 18 17 17 16 15 15 15 14 14 14 14 14 14 15 15 16 17 16 16 16 17
17 15 13 13 15 16 15 16 16 15 14 13 12 11 11 10 9 8 8 9 11 13 15 16 17 17 16 15 14 13 11 11 12 15 16 14 16 16 15 14 13 13 13 12 11 10 9 7 7 7 7 5 4 5 5 6 6 8 12 13 13 14 17 18 17 17 16 15 15 15 14 14 13 13 13 13 13 13 14 15 15 14 15 16 16
18 16 13 14 16 15 15 16 15 15 14 13 12 12 11 10 8 8 8 9 11 13 14 15 15 16 16 15 15 13 12 12 12 13 14 15 16 15 13 12 13 13 13 12 11 10 8 7 7 6 6 5 4 4 5 5 6 7 10 12 12 15 17 17 17 17 16 15 14 14 13 13 12 11 11 12 12 12 13 13 12 13 14 14 15
18 17 14 15 16 15 16 16 16 15 14 13 12 12 11 9 8 7 8 10 11 12 13 14 14 15 15 15 15 14 13 12 12 13 14 16 15 14 12 11 12 13 12 11 11 9 8 6 6 6 5 5 4 4 5 6 6 6 9 11 12 15 16 18 18 17 16 15 14 13 12 11 11 10 10 10 10 10 11 10 10 12 13 14 15
18 17 15 16 16 16 16 16 16 15 14 13 13 12 11 9 8 8 9 10 11 13 14 14 15 15 15 14 14 14 14 13 14 14 14 15 14 14 13 12 12 12 10 9 9 8 7 6 6 5 4 5 5 5 5 6 6 6 9 11 13 14 15 18 17 16 16 15 15 10 8 9 9 9 8 8 8 8 8 9 10 11 12 12 14
18 16 15 16 16 17 16 16 16 15 14 13 13 12 11 9 8 8 9 11 12 13 15 15 15 15 14 14 14 13 14 14 14 14 14 14 15 14 13 13 12 11 9 8 8 7 6 5 6 5 5 5 6 6 5 6 7 7 9 12 13 13 15 17 17 16 16 15 13 8 7 8 8 8 8 7 6 6 7 8 9 10 11 12 13
18 16 15 17 16 17 16 16 16 15 14 13 13 12 11 9 9 10 10 11 12 14 14 14 14 14 13 13 13 13 14 14 14 14 14 14 14 13 13 12 11 10 9 8 8 7 6 6 5 5 6 7 7 6 6 6 8 8 9 11 13 13 14 16 15 15 16 13 8 7 7 7 7 7 7 6 5 5 6 7 8 9 10 11 12
19 15 13 15 16 17 17 16 17 16 15 14 14 12 11 10 10 10 11 11 12 13 14 14 14 13 13 13 13 13 14 14 13 13 13 13 13 12 11 11 10 9 8 8 8 7 7 6 6 6 7 8 8 8 7 7 8 10 9 10 12 13 15 15 15 15 15 9 5 7 7 7 7 6 6 6 5 4 4 5 6 7 8 9 11
19 15 12 13 15 16 16 17 17 16 15 14 14 13 12 11 11 11 11 11 12 12 13 13 13 13 13 13 13 13 13 13 12 13 13 12 12 11 10 9 9 9 8 7 6 6 6 6 7 8 9 9 9 9 8 8 9 10 10 10 11 14 16 15 16 14 10 7 7 7 7 6 6 6 6 5 4 3 2 4 5 6 7 8 10
18 16 13 11 14 15 16 16 17 17 16 15 14 13 12 12 11 11 11 11 11 11 12 13 13 13 13 13 13 13 12 12 12 12 11 11 10 9 9 7 7 7 7 6 5 5 5 6 7 8 10 10 11 10 9 9 9 10 11 11 11 14 16 16 16 12 7 8 9 7 9 9 6 8 7 6 5 3 1 2 3 4 6 7 8
17 17 14 11 13 14 15 16 16 18 17 16 15 14 13 12 12 11 11 10 10 10 11 12 12 12 12 12 12 12 12 12 12 11 10 9 9 8 7 6 5 5 5 4 5 4 5 5 7 9 10 11 12 11 10 9 9 10 11 11 12 14 16 16 13 7 7 9 8 8 10 9 7 9 8 6 5 4 2 1 1 3 4 6 8
17 17 15 12 12 13 15 15 16 18 18 17 16 15 14 13 12 11 11 10 10 9 10 11 11 11 12 12 12 12 13 12 11 10 10 9 9 8 7 6 6 5 4 4 5 5 5 5 6 9 9 10 12 11 10 10 9 9 11 11 13 15 15 16 10 5 6 6 8 9 7 5 7 10 9 7 6 5 4 2 1 2 4 5 7
17 17 16 13 13 14 14 15 16 17 18 18 17 16 14 13 12 11 11 10 9 9 9 9 10 10 11 11 12 12 12 12 11 11 10 9 9 8 7 7 6 5 4 5 5 5 5 5 6 8 8 8 10 11 10 10 10 9 11 12 13 15 14 14 9 5 5 5 7 7 5 4 8 11 9 8 7 6 4 3 1 1 3 5 6
17 16 15 14 13 13 14 14 15 16 17 18 18 17 15 14 12 12 11 11 9 8 8 8 9 9 9 10 11 11 11 11 11 11 10 9 8 7 7 6 5 5 4 5 5 5 5 5 6 7 6 5 8 11 11 11 11 11 11 12 12 13 13 11 8 6 5 7 7 5 4 4 8 10 9 8 7 6 5 3 1 1 3 5 7
16 16 15 14 13 13 12 12 14 16 17 18 18 17 16 14 13 13 11 11 10 8 8 8 8 8 8 8 8 9 9 10 10 10 10 9 8 7 6 5 5 5 5 4 4 5 6 7 7 7 6 5 6 9 11 11 10 10 10 11 12 11 12 8 4 4 4 5 6 5 4 4 8 9 8 7 5 4 3 1 1 2 4 6 7
16 15 15 14 13 12 12 11 13 15 16 16 17 16 15 15 15 14 12 12 11 10 8 8 8 8 7 7 7 7 8 9 10 10 11 9 8 6 6 5 5 5 4 4 4 5 6 7 7 7 7 6 7 8 10 11 9 8 9 9 10 10 11 10 4 2 3 2 4 4 3 5 6 6 6 4 3 2 0 0 2 3 5 6 7
15 14 14 14 13 12 11 11 12 14 15 16 16 15 16 17 16 15 14 13 12 11 10 9 8 8 7 7 6 6 7 8 9 10 10 9 7 6 5 5 4 4 4 4 5 5 6 6 7 7 8 8 7 7 8 10 9 7 7 7 9 9 10 11 6 2 3 4 3 3 3 5 5 5 4 2 3 2 0 1 2 3 5 6 6
14 13 14 14 13 13 12 11 12 12 14 16 16 17 18 18 17 16 16 15 14 13 12 11 10 9 8 8 7 6 7 8 8 9 10 8 7 6 5 5 4 3 4 4 5 6 6 6 6 7 9 8 8 8 7 8 8 6 5 6 8 8 9 11 7 3 5 6 4 3 3 4 4 5 4 2 3 2 1 0 1 2 4 5 4
14 13 13 13 13 13 13 11 11 12 12 14 15 17 18 16 15 16 16 16 16 15 13 12 11 11 10 9 9 8 8 9 9 9 10 8 7 6 5 5 4 4 4 4 5 6 6 7 7 7 8 8 8 9 8 7 7 6 5 5 7 8 8 9 5 3 4 5 4 3 3 4 5 5 4 3 3 3 3 1 0 1 3 4 4
13 13 13 13 13 12 13 11 11 11 11 12 13 15 15 14 14 14 15 16 16 16 15 14 14 13 12 11 10 10 9 9 10 10 10 9 8 7 6 5 4 5 4 5 5 6 8 9 9 8 8 8 8 8 7 7 7 6 5 5 6 6 7 7 5 4 2 3 5 3 4 5 5 4 4 4 3 3 3 2 1 1 2 3 4
12 13 12 13 13 12 13 12 11 10 11 11 11 14 15 14 14 14 15 15 16 17 17 16 15 13 13 12 11 11 9 9 10 10 10 10 9 7 6 6 6 5 5 5 5 7 9 10 10 10 10 9 8 7 7 6 7 6 5 5 6 6 5 5 5 5 3 3 4 3 5 5 5 5 4 4 3 3 3 2 2 1 3 3 3
12 12 12 13 14 14 13 12 12 10 10 10 9 11 12 13 14 14 15 14 16 16 17 16 15 14 13 13 12 10 9 8 9 10 10 10 10 8 7 7 7 7 6 5 5 6 9 11 12 12 12 11 9 8 7 6 7 7 6 5 7 7 6 6 6 4 4 3 2 3 5 5 6 5 5 5 4 3 3 2 2 1 2 3 3
12 12 11 11 12 13 13 11 12 10 9 9 9 9 10 12 13 13 14 14 14 16 17 16 15 14 12 12 10 9 8 8 8 9 10 11 10 9 8 8 8 8 7 6 6 6 8 11 12 12 12 12 10 9 7 7 7 7 7 7 7 7 7 8 6 5 4 3 3 3 4 6 6 6 6 5 5 5 4 3 3 2 2 2 2
13 12 11 11 10 11 13 13 12 10 9 9 9 9 9 10 12 12 12 13 13 14 15 15 14 12 11 11 10 9 7 7 8 8 10 10 9 9 8 8 9 9 8 7 6 6 7 9 11 13 13 12 10 9 8 8 8 7 7 9 8 7 8 8 7 6 4 4 5 4 3 5 6 6 6 6 6 6 5 4 3 3 2 2 1
13 13 11 11 11 11 12 13 12 11 10 8 9 9 9 9 10 11 11 12 13 13 14 14 13 11 11 9 10 11 8 7 9 8 9 9 8 7 7 7 8 9 9 7 6 6 5 7 9 11 13 12 10 10 9 9 9 8 8 10 9 8 8 8 8 6 4 4 4 3 3 3 4 5 5 5 5 5 5 4 4 4 4 3 1
13 13 12 11 12 12 12 13 12 11 10 8 8 8 9 8 7 9 10 11 11 11 12 12 11 12 12 10 11 12 9 8 8 7 8 8 8 7 7 8 8 9 10 9 8 7 6 7 7 9 12 12 11 10 11 10 9 8 8 10 10 9 9 8 7 6 5 5 3 2 3 2 3 3 3 3 3 3 4 3 4 4 5 4 3
13 13 12 12 12 12 12 11 11 10 10 9 8 8 9 8 7 8 9 10 10 10 9 10 11 12 12 12 12 11 9 8 7 7 8 9 9 8 8 9 8 8 10 10 8 7 6 8 8 8 12 13 13 12 11 11 11 9 7 9 10 10 10 9 7 6 6 5 4 2 3 2 2 3 3 3 1 1 1 2 2 3 4 4 3
13 13 12 12 12 12 11 10 9 9 9 9 8 8 9 8 8 7 8 10 10 10 10 10 11 12 13 13 12 10 10 9 8 9 10 10 9 9 10 10 10 9 11 11 9 8 7 9 9 8 11 13 12 12 11 10 11 11 9 10 10 10 11 10 8 7 6 5 5 3 2 3 2 2 3 3 2 2 1 0 0 1 2 3 3
13 12 11 11 10 9 9 8 8 8 8 8 7 8 8 7 7 7 8 9 9 10 11 12 10 11 13 12 11 11 10 9 9 11 11 10 10 12 12 11 11 11 12 12 11 10 9 9 8 7 10 13 11 11 12 11 11 11 10 10 10 10 12 11 9 8 6 6 6 4 2 2 3 2 3 4 4 3 3 2 2 2 1 1 1
13 11 10 10 9 9 8 8 8 8 8 7 8 8 7 7 7 7 7 7 8 10 11 11 11 11 11 11 12 13 13 12 11 11 12 11 12 12 12 11 12 12 12 12 12 11 10 9 8 7 8 12 12 11 12 13 11 11 11 10 10 10 11 11 10 8 7 6 6 6 4 2 2 3 3 3 4 4 4 4 4 3 2 2 2
13 12 11 10 10 9 9 9 9 9 8 8 8 8 8 8 8 7 7 7 8 10 10 9 9 9 11 13 15 15 14 13 11 12 13 13 13 12 13 13 12 13 12 13 13 12 12 12 10 8 8 11 13 12 11 12 13 12 11 11 11 11 11 11 10 9 8 7 7 7 7 6 4 3 3 3 4 5 5 5 5 4 4 3 2
14 12 11 10 9 9 8 8 8 8 8 7 7 7 7 7 8 8 8 8 8 9 8 9 8 9 12 14 14 14 13 13 13 14 15 14 13 13 14 14 13 14 14 14 14 13 12 14 13 11 10 12 14 14 12 11 13 13 12 12 12 12 11 11 11 10 9 8 8 8 8 8 6 4 4 3 3 4 5 6 5 5 4 3 2
14 11 10 9 7 8 7 7 7 7 7 6 6 6 6 6 7 8 9 9 9 8 8 9 10 10 12 12 12 13 13 13 14 15 16 15 14 13 14 15 15 15 14 14 15 14 13 12 11 10 9 10 12 16 16 13 12 13 13 12 12 13 12 12 11 11 10 9 9 9 9 9 8 7 5 3 2 2 3 4 4 4 4 2 2
13 11 9 8 7 7 7 7 6 5 6 6 6 5 5 6 7 8 8 9 8 8 7 8 9 10 11 12 12 12 12 13 14 14 16 15 14 14 14 14 14 14 13 13 15 16 15 12 9 8 9 9 11 16 17 15 14 14 14 13 13 13 13 13 13 12 12 11 10 10 10 10 10 9 8 6 3 2 1 2 2 3 3 3 2
12 10 9 7 6 6 6 6 6 5 6 6 5 4 6 7 8 8 8 8 8 7 6 6 6 6 8 9 11 12 13 13 13 14 14 14 13 13 13 12 12 12 12 13 15 17 17 13 11 10 11 11 11 13 14 14 15 15 15 15 15 13 13 14 14 13 13 12 12 11 11 11 11 10 9 8 6 4 2 1 1 2 2 2 2
11 9 8 7 6 6 6 6 5 5 5 5 6 6 7 7 8 7 7 7 6 5 5 4 3 4 5 6 8 8 9 10 11 12 14 14 12 13 13 12 11 11 11 12 13 16 17 15 13 12 12 11 11 12 13 13 14 14 15 15 15 15 14 14 15 15 14 13 13 12 12 12 12 12 11 10 9 7 5 3 2 1 1 1 1
11 9 7 6 5 5 5 6 6 5 5 5 6 6 6 6 6 6 6 5 3 2 2 3 3 4 5 5 5 5 5 5 6 9 11 12 12 11 10 10 10 10 10 11 11 14 17 17 16 16 15 13 12 12 12 12 13 14 14 15 15 15 15 15 14 14 14 15 14 13 13 13 13 13 12 11 11 10 8 6 4 3 2 1 1
12 10 8 7 5 4 5 6 6 5 5 5 4 4 5 5 5 5 5 4 2 2 2 3 3 3 4 6 6 5 5 5 5 7 8 9 9 9 9 8 8 9 9 9 10 12 16 17 17 18 18 16 15 14 13 12 12 12 13 14 15 15 15 16 15 14 14 15 15 14 13 13 14 14 14 13 12 12 11 9 7 6 4 4 3
13 11 10 9 7 5 6 7 7 5 5 5 5 5 5 5 4 4 4 2 1 2 3 4 3 2 4 6 6 6 5 5 7 6 6 6 6 7 10 10 8 7 8 9 9 10 14 17 18 19 20 20 18 18 17 15 14 12 12 13 15 16 16 16 16 15 14 14 14 14 14 14 15 15 15 14 13 12 12 11 9 8 7 6 5
14 12 11 11 9 7 7 8 7 6 6 6 6 6 5 4 3 3 2 3 4 4 4 4 3 2 2 3 4 4 4 5 7 5 4 4 4 4 6 9 9 8 8 8 8 9 12 15 17 19 21 22 22 22 21 19 18 17 16 16 17 17 17 17 17 15 14 14 14 14 14 14 14 14 14 13 13 12 12 12 11 11 10 9 7
16 15 14 13 11 8 8 9 8 7 7 7 7 7 6 4 4 4 4 4 5 4 4 5 4 4 4 3 3 4 4 5 6 5 3 4 4 2 2 4 6 7 8 9 10 9 10 11 14 17 20 21 22 22 22 21 21 20 19 20 22 20 17 17 19 17 15 15 15 16 15 15 14 13 13 14 13 13 13 13 12 12 12 12 10
19 17 16 14 13 10 9 9 8 8 9 8 7 7 7 6 5 5 5 6 6 5 4 4 4 4 4 4 4 3 3 4 5 5 3 3 2 1 1 2 2 4 5 8 9 8 8 9 11 13 16 18 18 19 20 20 20 19 18 19 21 21 17 15 18 18 16 15 16 17 16 15 15 14 13 14 14 14 14 14 14 14 13 13 12
21 19 18 16 15 13 12 10 9 9 10 9 8 8 8 8 7 7 7 7 7 6 6 5 5 5 5 4 3 3 4 3 4 4 3 2 2 2 2 2 2 3 3 3 5 6 5 5 7 8 10 12 14 17 18 17 17 17 16 15 15 16 15 15 15 14 15 15 15 16 15 14 14 14 14 14 15 15 14 14 14 15 14 14 13
24 22 21 19 18 16 13 11 10 10 10 10 10 9 8 8 9 9 9 8 7 6 7 7 7 6 5 5 5 5 5 6 6 5 4 3 3 4 3 3 3 3 2 2 2 3 4 3 4 4 5 6 9 12 14 14 15 15 15 13 11 9 10 12 12 13 16 14 14 14 14 14 14 14 14 15 15 15 15 15 15 16 16 15 15
27 25 24 22 20 17 15 13 11 11 11 11 10 10 9 8 9 10 10 9 7 7 7 7 7 6 5 5 6 6 6 7 7 6 5 4 4 4 4 3 3 3 3 2 2 2 2 2 2 3 4 4 4 5 8 10 11 12 12 11 9 8 9 11 11 14 17 15 15 14 12 12 12 13 14 14 15 15 16 17 16 16 16 15 16
28 27 25 24 22 18 16 15 13 12 12 11 10 11 10 8 9 10 10 10 8 7 7 6 6 6 5 5 6 6 6 6 7 7 6 5 4 4 4 4 3 3 4 3 2 2 2 1 2 2 3 4 3 2 4 6 7 8 11 11 9 9 9 11 10 11 13 15 19 17 13 12 9 9 11 11 12 13 15 16 15 16 17 16 16
30 28 27 26 24 21 19 17 15 14 14 12 11 12 11 9 8 9 10 10 9 8 8 7 6 5 5 5 6 6 6 7 7 6 6 5 4 4 4 4 4 3 4 3 2 2 2 2 2 2 1 2 2 3 3 4 5 7 9 10 11 10 8 8 8 8 8 11 15 15 15 15 13 12 12 10 9 8 12 16 15 15 16 16 16
32 31 30 28 26 25 22 19 17 15 14 13 12 12 12 11 10 11 12 10 8 9 8 7 7 5 4 4 5 5 6 6 6 6 6 6 6 6 6 6 5 5 5 4 2 2 1 1 2 1 1 1 1 2 3 2 3 6 7 7 8 8 7 7 8 9 9 8 9 11 11 13 15 16 15 14 12 10 12 14 13 12 12 13 15
35 33 31 30 29 28 24 21 19 17 15 14 13 13 13 12 12 13 14 12 10 9 8 7 6 5 4 4 4 4 5 5 5 5 6 6 6 6 6 6 6 6 5 4 3 3 3 2 1 1 1 1 1 1 2 2 2 3 3 3 4 4 6 7 7 7 8 8 8 8 9 10 13 14 14 16 16 17 17 16 14 13 12 12 14
36 35 34 32 31 30 27 24 21 18 17 16 15 14 15 15 14 15 16 15 13 11 9 8 7 6 5 4 3 4 4 4 4 4 4 4 4 4 4 4 5 5 4 4 4 4 4 4 4 3 2 1 1 1 2 2 3 3 2 3 3 3 4 5 6 5 6 8 8 8 9 11 13 13 15 17 17 20 21 19 20 19 16 14 14
36 36 36 35 34 32 29 26 23 20 19 18 17 16 16 17 16 16 16 16 15 13 11 9 8 7 6 5 4 4 4 3 3 3 3 3 2 2 2 3 4 4 5 4 4 5 5 5 5 5 5 4 3 2 1 2 3 4 3 4 4 5 5 5 6 5 5 6 8 9 9 9 12 13 16 18 19 22 23 22 21 20 19 18 17
Wind_Direction
151 163 170 174 172 169 170 166 164 165 165 159 157 153 152 149 149 154 158 162 163 167 171 177 180 182 184 183 179 178 177 170 170 167 162 154 156 159 158 158 156 152 149 144 137 136 138 141 145 143 138 140 135 123 125 121 129 146 144 135 136 137 134 133 131 131 129 128 125 121 116 111 105 99 94 87 82 77 72 67 63 62 59 57 56
150 163 166 173 170 170 168 162 164 164 162 157 156 154 151 148 148 152 156 159 160 163 165 170 175 180 183 185 185 183 181 178 172 169 169 162 158 158 158 157 155 152 149 145 140 139 135 137 148 152 146 150 150 133 128 123 127 146 146 135 135 137 133 133 133 131 130 129 127 123 117 112 106 99 93 85 77 71 66 62 60 56 53 52 50
145 158 165 173 171 170 166 160 164 163 160 157 157 155 150 146 146 147 149 150 153 158 160 165 169 174 179 182 186 183 182 180 173 173 176 171 158 155 160 158 155 154 154 148 142 141 134 135 147 157 155 154 164 150 137 131 132 144 144 134 135 139 137 137 133 132 132 129 126 121 117 113 109 102 94 86 76 69 64 61 56 49 46 46 47
143 157 164 169 171 170 166 161 162 161 159 159 160 154 149 145 143 142 142 144 146 150 153 158 162 170 176 180 184 182 181 175 168 165 171 171 156 155 161 157 155 153 156 150 142 142 138 137 143 163 168 162 179 170 154 143 138 146 146 139 139 143 142 138 134 136 134 130 127 118 113 112 111 106 97 90 82 75 69 61 50 45 41 40 43
146 157 164 166 170 171 166 162 160 161 161 163 161 154 150 144 141 138 139 141 141 145 145 150 155 164 170 175 177 177 175 167 160 156 161 163 153 157 159 155 155 154 156 151 149 151 146 142 144 168 183 177 192 186 168 151 140 150 153 147 145 145 145 141 140 140 136 134 127 115 112 116 116 113 104 96 86 77 70 57 44 40 38 36 40
155 156 163 165 169 172 168 162 160 162 165 165 161 155 151 144 139 136 140 141 140 143 141 144 149 155 160 165 169 170 169 163 159 153 153 153 153 159 159 158 161 162 161 159 167 170 163 168 161 173 196 196 200 192 180 161 146 156 160 154 152 150 147 145 143 140 137 135 125 118 124 124 124 123 114 104 88 72 62 52 40 35 33 32 38
162 157 162 166 166 169 166 163 162 164 166 165 162 156 151 145 139 136 139 140 141 142 142 144 144 147 151 158 163 164 164 162 161 159 157 157 159 159 159 162 165 166 165 171 182 187 192 202 194 189 202 204 206 202 192 175 160 163 166 161 157 153 151 148 142 140 141 133 118 123 130 131 137 133 124 111 92 73 55 46 36 33 30 26 35
162 156 160 168 168 168 164 165 166 166 167 166 163 158 153 147 140 137 138 138 140 141 143 142 141 142 145 151 155 158 161 164 166 166 165 165 165 160 161 164 166 169 171 180 183 188 201 217 217 208 209 209 209 211 200 187 174 167 172 171 161 153 154 150 143 147 144 132 131 136 134 140 145 143 136 122 102 81 55 47 37 29 31 24 30
163 156 154 166 171 172 168 167 167 165 166 167 166 162 157 150 143 139 137 136 137 139 142 142 142 144 145 149 152 157 162 165 167 166 165 164 165 163 165 165 167 171 173 179 180 185 199 216 225 218 214 213 209 214 205 193 183 170 177 179 168 159 155 154 151 151 142 141 149 135 133 134 144 160 152 140 123 101 58 47 40 29 30 24 27
162 158 152 160 170 173 170 169 169 165 166 168 169 167 161 153 146 142 139 136 135 136 142 145 149 151 152 153 155 161 164 165 163 160 161 162 165 164 164 163 163 169 172 175 178 188 200 209 221 221 219 215 208 213 208 198 190 174 179 181 175 165 157 157 153 150 144 150 150 143 151 140 152 176 165 159 147 132 100 51 40 30 30 25 26
159 159 154 159 168 170 171 173 171 167 166 170 172 172 166 158 152 147 141 136 136 138 144 149 154 159 160 160 160 163 165 165 161 158 159 159 159 157 155 155 159 166 176 179 181 195 205 208 214 217 220 215 206 211 209 201 195 178 179 180 176 168 163 158 146 152 149 149 165 160 154 145 170 181 171 170 158 159 158 113 50 25 31 29 23
157 160 156 158 169 172 173 173 172 170 167 171 175 176 171 164 160 153 145 138 137 139 144 150 155 160 164 165 165 164 164 164 161 160 159 158 155 153 153 153 161 168 178 183 185 200 209 210 213 211 213 214 205 206 207 199 192 178 174 174 174 168 166 158 139 160 145 147 184 159 133 137 184 183 172 177 168 177 185 168 133 20 30 31 23
157 161 158 153 169 175 172 174 177 174 170 173 176 178 176 169 168 162 154 146 141 139 141 148 153 159 163 166 168 167 167 167 167 165 163 164 163 162 161 159 166 169 177 190 192 198 205 202 202 201 200 213 209 200 198 191 180 170 165 163 168 166 167 159 138 150 151 165 183 159 147 152 183 183 175 181 179 185 192 187 166 25 27 25 20
156 159 156 149 162 171 173 176 180 180 177 177 176 179 180 177 176 172 165 157 151 144 140 142 147 154 161 168 172 175 177 178 177 175 173 174 176 175 172 170 172 171 180 197 202 198 198 187 188 199 193 206 214 198 189 183 175 165 157 155 160 163 165 157 139 154 173 178 170 156 167 167 182 184 181 187 188 190 191 188 185 7 20 21 17
157 158 154 148 150 163 175 177 179 183 183 179 173 179 184 184 182 180 178 168 162 155 151 145 144 150 156 165 172 178 183 188 188 187 185 185 188 186 187 186 180 181 186 200 212 211 199 184 189 203 196 199 210 204 194 182 174 166 156 151 154 163 162 137 119 163 170 186 179 154 155 182 186 189 194 195 197 200 199 191 347 7 21 19 15
160 156 148 144 145 156 170 177 180 181 186 180 170 178 187 187 187 191 187 175 170 169 169 159 151 154 156 160 168 175 179 186 189 187 187 190 195 194 197 194 186 186 188 200 210 220 209 192 198 207 203 208 212 217 211 193 181 172 163 154 150 162 160 135 121 154 128 174 189 158 180 208 192 204 212 206 218 217 246 14 4 12 24 21 16
157 153 146 143 145 151 164 177 183 181 184 180 173 181 188 189 195 201 191 182 181 179 180 175 170 169 164 163 168 176 176 181 184 180 181 187 196 197 196 198 196 190 190 200 205 222 220 201 204 207 204 212 215 214 215 202 195 188 173 160 152 154 155 143 139 154 143 154 153 149 214 235 212 221 224 220 231 211 20 11 10 12 25 27 25
150 150 147 146 148 152 162 174 183 185 183 179 178 185 191 193 199 202 196 192 191 187 186 186 185 181 177 175 175 184 185 185 185 183 183 185 192 192 192 202 211 201 195 199 201 217 224 213 209 211 209 208 206 199 204 202 200 202 188 172 156 151 159 146 135 169 168 149 131 142 202 232 221 224 230 220 224 199 168 156 360 13 29 36 36
145 148 149 149 153 156 160 169 180 182 183 181 178 185 194 199 202 204 204 203 199 196 194 193 192 187 186 185 185 192 195 193 192 192 190 187 186 183 189 200 210 210 212 211 204 213 225 227 219 217 216 208 203 198 199 198 192 197 195 188 165 157 161 139 132 183 167 149 138 153 189 205 214 214 223 219 219 200 176 177 277 27 42 45 45
149 150 152 152 157 160 159 166 177 179 184 184 180 187 195 202 204 206 210 209 206 204 202 202 199 194 191 190 193 198 200 200 200 198 192 189 186 182 190 203 214 219 226 226 215 216 224 232 225 219 224 223 221 211 201 196 189 191 191 192 175 171 164 136 159 188 168 183 159 155 183 187 204 203 213 220 213 202 185 178 175 61 69 63 53
155 153 156 158 161 165 162 164 170 179 187 182 181 189 192 198 202 206 211 211 209 208 208 209 203 198 198 196 198 203 209 208 206 203 195 192 189 185 192 204 220 223 224 233 233 231 229 234 231 225 229 232 236 234 224 213 199 191 190 193 181 182 181 161 178 179 177 201 166 165 181 179 191 195 205 213 206 203 198 188 166 98 88 83 66
156 156 159 162 166 167 165 165 167 176 188 179 174 184 186 192 199 205 209 210 211 211 211 210 204 202 205 205 205 210 216 215 211 206 197 195 191 187 192 197 209 217 218 224 234 238 234 236 237 234 234 232 234 239 241 238 225 206 195 197 189 186 196 195 182 175 188 189 181 190 179 178 182 183 198 201 202 204 203 207 185 137 102 100 87
160 162 160 164 169 168 164 166 170 173 183 183 176 176 177 184 195 203 206 207 210 213 212 212 211 210 214 211 210 218 220 217 219 210 198 197 193 187 193 193 195 207 217 226 231 235 235 235 238 239 239 235 230 233 233 239 244 226 205 200 202 196 198 205 191 178 187 177 216 229 180 181 177 172 188 191 196 202 203 214 210 173 135 119 101
164 163 164 169 170 170 170 172 176 173 178 187 186 178 173 178 186 194 203 204 204 209 211 214 216 213 217 214 211 220 223 224 227 215 202 202 199 193 198 201 196 202 214 228 235 234 233 233 235 237 241 238 226 226 229 229 235 232 218 207 208 207 196 206 201 180 183 184 217 237 186 182 178 169 179 186 192 200 204 210 214 212 192 161 114
167 167 170 174 173 176 177 178 181 182 184 188 189 184 179 178 178 183 194 199 200 204 208 214 215 211 215 218 221 221 217 231 232 210 204 209 209 208 209 211 205 205 212 219 228 228 225 226 232 234 237 234 220 216 220 225 229 228 231 218 210 211 199 206 208 188 188 198 208 208 173 179 181 172 174 186 194 200 205 209 213 221 217 200 177
170 172 174 178 177 178 182 185 187 190 193 194 193 193 193 188 179 180 189 198 201 201 204 213 217 215 214 215 226 226 214 227 236 210 203 207 208 213 211 212 209 208 213 213 219 221 213 220 228 232 234 232 226 222 218 221 225 222 233 227 216 215 206 206 214 202 194 209 223 191 163 163 163 169 164 169 190 204 210 214 220 229 227 218 211
172 174 177 182 183 183 188 193 195 197 202 204 205 209 210 208 204 193 190 198 201 200 202 209 216 217 215 217 223 225 218 218 226 214 210 210 209 211 210 210 210 213 217 213 222 225 215 228 233 236 238 235 232 233 228 228 228 217 223 229 220 219 215 207 213 214 201 209 227 198 157 149 140 155 142 125 133 180 224 229 233 245 241 234 237
173 175 180 187 191 192 195 200 203 208 212 212 213 220 223 228 232 211 197 202 201 199 201 204 213 215 214 218 217 216 218 215 215 217 216 214 212 214 214 213 208 212 218 214 223 228 221 233 240 239 237 232 230 230 227 231 236 221 217 229 223 221 221 212 211 215 210 208 220 218 163 144 137 148 141 128 120 98 82 92 156 255 253 246 250
173 176 180 182 188 190 193 203 208 211 215 214 216 226 229 232 234 211 203 209 201 200 203 201 202 210 214 215 215 216 220 220 220 219 217 216 218 222 225 225 219 217 218 215 219 226 226 233 239 238 230 223 219 224 222 221 234 227 219 228 227 224 224 220 215 212 214 213 214 227 231 155 139 145 146 145 141 115 101 101 94 95 106 213 226
171 175 176 170 175 182 185 193 200 203 207 211 214 223 225 223 226 216 213 211 203 208 208 204 200 204 213 211 215 220 219 222 225 220 218 220 225 229 231 233 232 231 228 222 223 230 232 230 228 226 231 228 215 218 225 217 223 230 224 223 225 225 223 223 223 215 219 227 224 232 258 249 174 154 146 151 151 133 118 114 112 111 111 117 139
168 169 171 170 171 175 179 184 192 197 198 204 208 214 217 215 220 224 227 216 211 216 211 209 208 203 208 209 214 220 220 225 230 226 223 224 227 231 236 239 240 241 238 229 230 234 234 234 233 215 216 231 220 213 221 218 218 224 227 224 223 226 222 219 219 219 222 230 237 241 254 258 230 189 163 148 146 138 126 119 120 123 121 117 126
164 162 167 170 164 162 172 180 186 191 191 199 204 208 211 212 216 219 229 231 225 225 216 211 209 206 215 216 219 224 225 227 230 233 234 232 231 233 240 246 247 248 244 237 236 234 234 241 243 229 216 222 221 213 213 215 215 217 223 223 223 226 226 223 220 222 226 228 237 242 247 252 246 225 199 169 143 137 131 123 123 124 118 113 126
161 160 165 168 161 159 172 178 181 185 184 198 206 204 205 206 211 212 222 234 235 231 227 224 218 216 222 222 222 227 227 227 228 234 240 241 239 239 244 246 247 249 246 242 238 231 234 241 242 244 235 223 219 218 218 217 215 215 218 221 225 227 226 231 229 226 229 231 237 242 244 249 247 239 227 208 177 149 133 127 126 121 111 103 100
162 166 170 171 166 162 173 175 175 181 189 203 205 194 194 196 203 211 220 229 232 230 232 234 230 231 233 230 230 233 235 234 230 232 241 245 243 243 248 247 245 247 243 238 235 227 230 233 224 224 221 211 210 218 224 222 218 217 217 217 224 227 226 231 234 234 235 233 235 239 240 241 241 242 238 231 222 215 184 142 128 119 113 104 94
165 169 171 174 166 162 173 171 171 185 200 201 189 187 189 192 199 206 218 226 225 223 229 235 230 233 240 239 239 242 244 243 238 236 241 245 244 246 251 252 248 246 239 233 230 224 225 226 215 207 209 208 205 213 223 224 221 220 221 222 223 225 228 231 233 234 237 236 237 238 238 235 234 235 235 236 237 239 243 233 168 122 122 111 100
168 169 167 173 169 168 175 175 183 192 206 198 179 187 192 194 201 204 216 228 226 219 220 221 210 208 220 234 239 241 241 242 242 241 242 244 247 250 253 251 246 240 232 228 225 220 221 220 211 205 209 211 207 212 221 224 225 224 226 229 230 229 230 232 233 234 236 237 238 239 238 237 235 232 229 231 236 240 244 243 231 180 156 129 111
171 173 168 174 178 183 185 186 198 196 203 202 183 185 187 190 204 215 227 233 225 206 204 206 201 212 226 241 246 240 231 234 242 241 240 241 241 246 250 245 239 234 230 227 222 217 217 216 212 208 207 208 210 216 220 222 226 230 233 233 235 237 236 236 236 236 237 236 235 236 237 236 236 237 234 232 234 237 237 238 242 242 245 251 256
174 179 180 187 192 200 207 205 208 199 193 194 186 183 181 191 210 229 247 256 235 163 161 169 174 201 228 243 252 248 232 222 231 235 235 235 229 231 238 237 235 232 227 223 219 218 217 216 215 213 211 208 212 218 223 225 225 229 234 233 235 240 240 239 237 235 234 234 234 232 234 234 234 236 234 232 233 235 235 232 238 245 248 252 258
182 186 191 199 203 209 221 222 216 203 192 187 184 187 189 203 219 234 249 254 152 148 156 154 156 183 221 237 243 240 231 217 218 225 230 232 224 226 230 227 226 225 223 221 217 214 216 218 217 217 215 213 215 220 223 227 230 231 234 235 237 240 241 241 238 236 232 230 232 230 231 234 234 233 232 232 233 236 239 234 236 244 246 246 251
190 193 200 205 208 216 225 228 221 200 190 189 185 186 189 197 193 194 186 142 137 145 143 130 131 155 180 214 216 210 215 217 216 217 223 228 225 232 235 229 225 220 221 226 226 220 218 220 220 221 221 219 219 222 223 226 232 234 236 238 240 240 242 242 238 235 232 229 230 230 230 232 234 234 234 235 236 239 241 239 241 246 245 244 244
197 200 207 211 211 217 226 231 224 198 183 184 184 182 180 184 177 170 157 143 145 142 133 128 135 150 150 147 154 170 192 211 212 202 205 221 222 226 235 234 234 228 227 231 233 232 228 222 221 226 228 226 224 225 226 228 232 236 238 242 245 243 239 241 239 233 230 231 231 231 230 230 231 233 235 235 235 236 238 239 240 240 241 245 246
202 204 209 214 214 216 223 229 225 199 180 176 180 182 178 177 174 165 152 144 145 138 138 144 139 136 136 132 131 142 162 189 191 177 177 201 206 197 186 208 229 228 229 233 234 235 231 221 222 229 233 231 229 228 228 230 234 239 241 245 252 250 241 238 240 238 235 233 234 236 234 234 233 230 232 232 230 231 234 238 240 238 235 238 244
207 208 211 215 216 217 220 223 221 202 183 175 178 186 182 174 168 163 153 151 157 153 149 144 129 120 117 106 101 113 117 122 135 136 141 160 152 136 134 149 171 176 187 208 220 223 220 214 215 223 232 234 232 229 229 231 232 233 238 247 255 256 250 244 240 241 241 235 235 239 238 238 236 232 232 233 231 231 235 239 241 243 242 238 240
211 211 212 215 216 217 219 219 214 201 188 180 182 187 184 172 165 164 158 157 161 151 140 132 122 116 105 91 82 91 105 110 113 118 131 142 134 129 127 127 142 148 143 157 180 198 206 199 184 192 214 226 230 228 227 231 231 230 236 243 245 248 254 252 241 237 241 240 241 243 241 241 238 234 234 236 236 236 240 242 241 243 244 241 240
215 214 214 216 217 216 217 218 212 200 191 186 186 185 183 176 169 167 161 157 154 143 136 130 123 115 103 90 77 77 92 108 117 123 127 125 123 128 128 122 128 128 117 130 154 162 188 203 180 186 206 195 192 211 218 223 226 228 228 225 225 229 242 251 247 246 247 243 242 241 238 241 239 238 240 240 242 243 246 248 246 246 245 242 242
217 218 218 218 219 218 217 218 211 200 194 191 189 186 183 184 178 171 165 159 154 150 150 144 132 124 113 98 83 79 82 94 112 124 125 122 119 120 119 115 122 131 128 131 144 142 140 163 163 196 228 196 171 186 210 217 223 227 219 212 217 223 232 240 244 257 254 245 247 242 230 231 232 234 239 244 250 250 250 251 250 250 249 247 244
219 220 222 221 219 219 218 217 212 203 197 191 189 187 183 183 180 173 168 163 160 166 168 159 148 141 127 107 91 85 82 86 99 110 117 119 113 111 115 115 114 118 125 126 133 148 158 189 177 167 212 186 186 215 215 215 237 245 225 213 221 222 221 225 228 246 253 252 254 245 238 241 238 234 234 236 244 249 250 251 253 256 256 253 251
220 222 223 223 221 220 219 218 214 206 201 195 191 189 182 178 176 171 169 167 168 180 181 169 161 158 142 120 104 95 90 93 99 102 106 107 107 107 104 105 101 91 92 98 101 105 118 205 205 190 203 177 163 203 209 209 236 251 235 218 228 231 227 228 229 236 244 255 254 241 244 248 240 240 242 238 237 243 251 254 255 257 259 256 254
221 224 225 224 223 222 219 218 215 209 205 199 194 191 183 179 179 175 174 175 177 184 187 184 181 174 164 150 129 113 104 106 108 109 109 106 104 102 97 95 91 85 82 76 73 78 70 66 79 83 171 216 228 185 189 201 215 238 238 233 243 240 235 240 242 244 250 260 259 247 249 246 239 242 245 243 245 248 251 256 256 253 253 258 258
223 224 227 226 225 224 220 217 215 212 210 204 198 194 186 181 185 185 182 184 188 190 191 196 199 192 188 183 160 141 129 124 122 120 117 115 104 92 83 76 70 71 67 51 49 56 55 54 54 50 59 58 292 239 210 221 239 245 236 239 250 242 239 248 259 271 266 264 266 267 267 261 258 258 252 249 252 254 253 253 257 258 257 258 257
226 223 226 227 226 225 221 217 215 213 214 209 201 197 191 187 189 192 190 192 195 197 200 205 209 207 209 208 196 180 166 156 153 144 139 137 119 85 61 46 43 46 48 43 37 37 40 44 47 46 42 41 36 10 307 275 271 267 243 232 238 240 237 235 244 260 268 266 269 272 274 273 272 272 266 260 257 257 258 259 263 267 269 266 260
Height
1516 1517 1518 1519 1520 1521 1523 1524 1526 1527 1528 1529 1530 1531 1531 1532 1533 1533 1534 1535 1535 1536 1536 1537 1538 1538 1539 1540 1540 1541 1541 1542 1542 1543 1543 1544 1544 1545 1546 1547 1547 1548 1548 1549 1549 1549 1550 1550 1550 1550 1550 1550 1550 1550 1551 1551 1551 1551 1551 1551 1552 1552 1553 1554 1554 1555 1556 1556 1556 1556 1556 1556 1557 1557 1557 1557 1556 1555 1555 1554 1554 1554 1553 1553 1552
1516 1517 1518 1519 1520 1522 1524 1525 1527 1528 1529 1530 1531 1532 1532 1533 1533 1534 1534 1535 1535 1536 1537 1537 1538 1539 1540 1540 1541 1541 1542 1542 1543 1543 1544 1545 1545 1546 1547 1548 1548 1549 1549 1550 1550 1550 1550 1551 1551 1551 1551 1551 1551 1551 1551 1551 1552 1552 1552 1552 1553 1553 1554 1554 1555 1556 1556 1557 1557 1557 1557 1557 1558 1558 1558 1558 1557 1557 1556 1556 1555 1555 1555 1554 1554
1516 1517 1518 1519 1521 1523 1524 1526 1527 1528 1530 1530 1532 1532 1533 1534 1534 1535 1535 1535 1536 1536 1537 1538 1538 1539 1540 1540 1541 1542 1542 1543 1543 1544 1545 1546 1546 1547 1548 1549 1549 1550 1550 1551 1551 1551 1551 1552 1552 1551 1552 1552 1552 1552 1552 1552 1552 1553 1553 1553 1553 1554 1555 1555 1556 1557 1557 1558 1558 1558 1558 1559 1559 1559 1559 1559 1559 1558 1557 1557 1557 1556 1555 1555 1555
1516 1517 1519 1520 1522 1523 1525 1526 1528 1529 1530 1531 1532 1533 1534 1534 1535 1535 1535 1536 1536 1537 1537 1538 1539 1539 1540 1541 1541 1542 1543 1543 1544 1545 1546 1547 1547 1548 1549 1549 1550 1551 1551 1551 1551 1552 1552 1552 1552 1552 1552 1552 1552 1552 1552 1553 1553 1554 1554 1554 1554 1555 1555 1556 1557 1557 1558 1559 1559 1560 1560 1560 1560 1560 1560 1560 1560 1559 1559 1558 1558 1557 1556 1556 1556
1516 1518 1519 1520 1522 1524 1525 1527 1528 1530 1531 1532 1533 1534 1535 1535 1536 1536 1536 1537 1537 1537 1538 1538 1539 1540 1540 1541 1542 1543 1543 1544 1545 1546 1546 1547 1548 1549 1549 1550 1551 1552 1552 1552 1552 1553 1553 1553 1553 1553 1553 1553 1553 1553 1553 1553 1554 1554 1554 1554 1555 1555 1556 1556 1557 1558 1559 1560 1560 1561 1562 1561 1561 1561 1561 1561 1561 1560 1560 1559 1559 1558 1557 1557 1557
1516 1518 1519 1521 1523 1524 1526 1527 1529 1530 1531 1532 1533 1535 1535 1536 1537 1537 1537 1537 1538 1538 1538 1539 1540 1540 1541 1542 1543 1543 1544 1545 1546 1546 1547 1548 1548 1549 1550 1551 1552 1552 1552 1552 1553 1553 1553 1553 1553 1553 1553 1553 1553 1553 1553 1554 1554 1554 1555 1555 1555 1556 1557 1557 1558 1559 1560 1560 1561 1563 1563 1562 1562 1561 1561 1561 1561 1561 1561 1560 1559 1559 1558 1558 1558
1517 1519 1520 1522 1523 1524 1526 1527 1529 1531 1532 1533 1534 1535 1536 1537 1538 1538 1538 1538 1539 1539 1539 1540 1540 1541 1542 1543 1543 1544 1545 1546 1547 1547 1548 1549 1549 1550 1551 1551 1552 1552 1552 1552 1553 1553 1553 1553 1554 1554 1554 1554 1554 1554 1554 1554 1554 1555 1555 1556 1556 1556 1557 1558 1559 1560 1560 1561 1563 1564 1564 1563 1563 1562 1562 1562 1562 1561 1561 1561 1560 1560 1559 1558 1558
1518 1519 1521 1522 1523 1525 1526 1528 1529 1531 1532 1533 1534 1536 1537 1538 1538 1539 1539 1539 1540 1540 1541 1541 1542 1542 1543 1543 1544 1545 1546 1546 1547 1548 1549 1549 1550 1550 1551 1551 1552 1552 1552 1552 1552 1553 1553 1553 1554 1554 1554 1554 1554 1554 1554 1555 1555 1555 1556 1556 1557 1557 1558 1559 1560 1561 1561 1562 1564 1565 1565 1564 1563 1563 1562 1562 1562 1562 1562 1561 1561 1560 1560 1559 1559
1519 1520 1521 1522 1524 1525 1527 1528 1530 1531 1533 1534 1535 1536 1537 1538 1539 1539 1540 1540 1541 1541 1542 1542 1543 1543 1543 1544 1545 1546 1546 1547 1548 1549 1549 1550 1550 1551 1552 1552 1552 1552 1553 1553 1553 1553 1553 1553 1554 1554 1554 1554 1554 1554 1554 1555 1555 1555 1556 1557 1557 1557 1558 1559 1560 1561 1562 1563 1564 1565 1565 1565 1564 1563 1562 1562 1562 1562 1562 1562 1561 1561 1561 1560 1560
1519 1521 1522 1523 1524 1525 1527 1529 1530 1531 1533 1534 1535 1537 1538 1538 1539 1540 1541 1541 1541 1542 1542 1543 1543 1544 1544 1545 1546 1546 1547 1548 1549 1549 1550 1550 1551 1552 1552 1553 1553 1553 1553 1553 1553 1553 1553 1553 1554 1554 1554 1554 1554 1554 1555 1555 1555 1556 1556 1557 1558 1558 1559 1559 1560 1562 1563 1564 1564 1564 1564 1565 1565 1563 1562 1562 1562 1562 1562 1562 1562 1562 1562 1561 1561
1520 1521 1523 1524 1524 1526 1527 1529 1530 1532 1533 1535 1536 1537 1538 1539 1540 1541 1541 1542 1542 1543 1543 1544 1544 1545 1545 1546 1546 1547 1548 1549 1549 1550 1550 1551 1552 1552 1553 1553 1554 1554 1554 1554 1554 1554 1554 1554 1554 1554 1554 1554 1554 1555 1555 1556 1556 1556 1556 1557 1558 1559 1559 1560 1561 1563 1564 1565 1564 1564 1564 1564 1564 1563 1562 1562 1562 1562 1562 1563 1563 1562 1562 1562 1562
1520 1522 1523 1524 1525 1526 1527 1529 1531 1532 1533 1535 1536 1537 1538 1539 1540 1541 1542 1542 1543 1543 1543 1544 1544 1545 1546 1546 1547 1548 1548 1549 1550 1551 1551 1551 1552 1553 1553 1554 1554 1554 1554 1554 1554 1554 1554 1554 1554 1554 1554 1555 1555 1555 1556 1556 1557 1557 1557 1557 1558 1559 1560 1560 1562 1564 1565 1565 1565 1564 1566 1565 1563 1563 1563 1562 1562 1562 1562 1563 1563 1563 1563 1563 1563
1521 1522 1523 1524 1525 1526 1528 1529 1531 1532 1533 1535 1536 1538 1539 1540 1541 1541 1542 1543 1543 1543 1544 1544 1545 1546 1546 1547 1547 1548 1549 1550 1550 1551 1551 1552 1552 1553 1554 1554 1554 1554 1555 1554 1555 1555 1555 1554 1554 1554 1555 1555 1556 1556 1556 1557 1557 1557 1558 1558 1559 1559 1560 1561 1562 1565 1566 1566 1565 1565 1566 1565 1563 1563 1563 1563 1563 1563 1563 1563 1563 1564 1564 1564 1563
1521 1522 1523 1525 1526 1527 1528 1530 1531 1533 1534 1535 1536 1538 1539 1540 1541 1542 1542 1543 1544 1544 1545 1545 1546 1546 1547 1547 1548 1549 1549 1550 1551 1551 1552 1552 1553 1553 1554 1555 1555 1555 1555 1555 1555 1555 1555 1555 1555 1555 1555 1556 1556 1557 1557 1558 1558 1558 1559 1559 1560 1560 1561 1562 1563 1565 1566 1565 1565 1566 1566 1565 1563 1563 1563 1563 1563 1563 1563 1564 1564 1565 1565 1565 1564
1522 1523 1524 1525 1526 1528 1529 1530 1531 1533 1534 1535 1537 1538 1540 1541 1541 1542 1542 1543 1544 1545 1545 1546 1546 1547 1547 1548 1548 1549 1550 1550 1551 1552 1552 1552 1553 1553 1554 1555 1555 1555 1555 1555 1555 1555 1555 1556 1556 1556 1556 1556 1557 1558 1558 1559 1559 1559 1559 1560 1560 1561 1561 1563 1565 1566 1566 1566 1565 1566 1567 1565 1564 1564 1564 1564 1564 1565 1565 1565 1566 1566 1566 1566 1565
1522 1523 1524 1525 1527 1529 1530 1531 1531 1533 1534 1535 1537 1539 1541 1541 1541 1542 1543 1543 1544 1545 1545 1546 1547 1547 1547 1548 1549 1549 1550 1550 1551 1552 1552 1553 1553 1553 1554 1554 1555 1555 1555 1555 1555 1555 1556 1556 1556 1556 1557 1557 1558 1558 1559 1560 1560 1560 1560 1561 1561 1561 1562 1563 1566 1566 1566 1566 1566 1566 1567 1565 1564 1565 1565 1566 1566 1566 1566 1566 1567 1567 1567 1567 1567
1523 1524 1525 1526 1528 1529 1530 1531 1532 1533 1534 1535 1537 1539 1541 1541 1541 1542 1543 1543 1544 1545 1546 1546 1547 1547 1547 1548 1549 1549 1550 1551 1551 1552 1552 1553 1553 1553 1554 1554 1555 1555 1556 1556 1556 1556 1556 1556 1557 1557 1557 1557 1558 1559 1560 1561 1561 1561 1561 1561 1561 1562 1562 1563 1565 1567 1566 1566 1566 1567 1567 1565 1565 1565 1566 1566 1566 1566 1567 1567 1567 1568 1568 1568 1567
1524 1525 1526 1527 1528 1529 1530 1531 1532 1533 1533 1535 1537 1538 1539 1540 1540 1541 1542 1543 1544 1545 1545 1546 1546 1547 1547 1548 1549 1549 1550 1550 1551 1552 1553 1553 1553 1553 1554 1554 1555 1555 1556 1556 1556 1556 1556 1557 1557 1557 1557 1558 1558 1559 1560 1561 1562 1562 1562 1562 1562 1562 1562 1563 1565 1567 1566 1566 1567 1567 1567 1566 1566 1566 1566 1566 1566 1567 1567 1567 1568 1568 1568 1568 1568
1524 1526 1526 1527 1528 1529 1530 1531 1532 1532 1533 1535 1537 1537 1538 1539 1540 1541 1541 1543 1544 1544 1545 1545 1546 1547 1547 1548 1549 1549 1549 1550 1551 1551 1552 1553 1553 1553 1554 1554 1555 1555 1556 1556 1556 1556 1556 1557 1557 1558 1558 1558 1558 1559 1560 1561 1562 1563 1563 1563 1563 1563 1562 1563 1566 1567 1566 1566 1567 1567 1566 1566 1566 1566 1566 1566 1567 1567 1567 1567 1568 1568 1568 1568 1568
1525 1526 1527 1528 1529 1530 1531 1531 1532 1532 1533 1534 1536 1537 1537 1539 1540 1541 1541 1542 1543 1543 1544 1545 1545 1546 1547 1547 1548 1548 1549 1550 1550 1551 1551 1552 1553 1553 1554 1554 1555 1555 1556 1556 1556 1556 1556 1556 1557 1558 1558 1558 1559 1559 1560 1561 1561 1562 1563 1564 1564 1563 1563 1564 1566 1567 1567 1567 1567 1567 1566 1566 1566 1566 1566 1567 1567 1567 1567 1567 1568 1568 1569 1569 1569
1525 1525 1527 1528 1529 1530 1531 1531 1532 1533 1533 1534 1535 1536 1537 1539 1539 1540 1541 1542 1543 1543 1543 1544 1545 1545 1546 1547 1547 1548 1549 1549 1549 1550 1551 1551 1552 1554 1554 1554 1554 1555 1555 1555 1556 1556 1556 1556 1557 1558 1558 1558 1559 1560 1560 1561 1561 1562 1563 1564 1564 1564 1564 1565 1566 1567 1568 1567 1567 1567 1566 1566 1566 1566 1566 1567 1567 1567 1567 1568 1568 1568 1569 1569 1569
1524 1525 1526 1527 1528 1530 1531 1531 1532 1533 1533 1534 1535 1535 1536 1538 1538 1539 1540 1541 1542 1542 1543 1544 1545 1545 1546 1546 1546 1547 1548 1548 1549 1550 1550 1551 1552 1553 1554 1554 1554 1554 1555 1555 1556 1556 1556 1556 1556 1557 1558 1558 1559 1560 1560 1561 1561 1562 1563 1564 1564 1564 1565 1565 1566 1568 1568 1568 1567 1567 1566 1566 1566 1566 1566 1566 1567 1567 1567 1567 1568 1568 1569 1569 1569
1524 1526 1527 1528 1528 1530 1531 1532 1532 1533 1534 1534 1535 1535 1536 1537 1538 1538 1539 1541 1542 1542 1543 1544 1544 1545 1545 1545 1545 1545 1546 1547 1547 1548 1549 1550 1552 1553 1553 1554 1554 1554 1554 1555 1555 1555 1555 1555 1556 1557 1557 1558 1559 1560 1561 1562 1562 1562 1563 1564 1564 1564 1565 1565 1566 1567 1568 1568 1568 1566 1566 1566 1565 1566 1566 1566 1566 1566 1567 1567 1567 1568 1568 1569 1569
1524 1526 1527 1528 1529 1530 1531 1531 1532 1533 1534 1534 1535 1535 1536 1537 1538 1538 1539 1540 1541 1542 1543 1543 1544 1544 1545 1545 1545 1545 1545 1545 1546 1548 1549 1550 1551 1552 1553 1553 1554 1554 1554 1554 1554 1554 1554 1554 1555 1556 1557 1558 1559 1560 1562 1563 1562 1562 1563 1564 1564 1564 1565 1565 1566 1567 1568 1568 1567 1566 1566 1566 1565 1565 1566 1566 1566 1566 1566 1566 1567 1567 1568 1568 1569
1525 1526 1527 1527 1528 1530 1530 1531 1532 1533 1534 1535 1535 1535 1536 1537 1537 1538 1539 1539 1540 1541 1542 1543 1544 1544 1543 1544 1545 1544 1545 1546 1547 1548 1548 1550 1551 1551 1552 1553 1553 1554 1554 1554 1554 1554 1554 1554 1554 1555 1556 1557 1558 1560 1561 1562 1562 1562 1563 1563 1564 1564 1565 1566 1566 1567 1568 1568 1567 1566 1566 1566 1566 1565 1565 1566 1565 1566 1566 1566 1566 1567 1567 1568 1568
1524 1525 1526 1527 1528 1529 1530 1531 1533 1533 1534 1535 1535 1535 1536 1536 1537 1538 1539 1539 1540 1541 1542 1542 1543 1544 1543 1544 1545 1544 1545 1546 1547 1548 1548 1550 1551 1551 1552 1552 1553 1554 1554 1554 1554 1554 1554 1554 1554 1555 1556 1556 1557 1558 1559 1560 1561 1562 1563 1563 1563 1564 1565 1565 1566 1566 1567 1567 1567 1566 1566 1566 1566 1566 1566 1566 1566 1566 1566 1566 1566 1566 1567 1567 1568
1524 1525 1526 1526 1527 1529 1530 1531 1532 1533 1534 1535 1535 1535 1536 1536 1537 1537 1538 1539 1539 1540 1541 1543 1543 1543 1543 1544 1544 1544 1545 1547 1547 1547 1548 1549 1550 1550 1551 1551 1552 1553 1553 1553 1553 1553 1554 1554 1554 1554 1555 1555 1556 1557 1558 1559 1560 1562 1563 1563 1563 1564 1565 1565 1565 1566 1566 1567 1567 1566 1566 1566 1566 1566 1566 1566 1566 1566 1566 1566 1566 1566 1567 1567 1567
1524 1525 1526 1527 1528 1529 1530 1531 1532 1533 1534 1534 1535 1535 1536 1536 1536 1537 1538 1539 1539 1540 1541 1542 1542 1542 1543 1544 1544 1545 1545 1546 1547 1547 1547 1548 1549 1549 1549 1550 1551 1552 1552 1552 1552 1552 1553 1554 1553 1553 1554 1555 1556 1557 1558 1559 1560 1560 1562 1563 1563 1564 1564 1565 1565 1565 1566 1567 1567 1566 1566 1566 1566 1565 1565 1566 1566 1566 1566 1566 1566 1566 1566 1567 1567
1524 1525 1526 1527 1528 1529 1530 1531 1532 1533 1533 1534 1534 1535 1535 1535 1536 1537 1538 1538 1539 1540 1540 1541 1542 1542 1542 1543 1544 1545 1545 1546 1546 1546 1547 1547 1548 1547 1547 1548 1549 1550 1550 1550 1551 1551 1552 1552 1553 1553 1553 1554 1555 1556 1557 1559 1559 1560 1561 1562 1563 1563 1563 1564 1565 1565 1566 1566 1566 1566 1566 1565 1565 1565 1565 1565 1565 1566 1566 1566 1566 1566 1566 1566 1566
1523 1524 1525 1527 1528 1529 1530 1531 1532 1532 1533 1533 1534 1534 1535 1535 1536 1536 1537 1538 1539 1539 1539 1539 1540 1540 1541 1543 1543 1544 1544 1544 1544 1545 1546 1546 1546 1546 1547 1547 1548 1548 1549 1550 1550 1550 1551 1551 1552 1552 1553 1553 1554 1555 1556 1557 1559 1560 1560 1562 1562 1563 1563 1563 1564 1565 1566 1566 1566 1566 1566 1565 1565 1565 1565 1565 1565 1565 1565 1565 1566 1566 1566 1566 1566
1522 1524 1525 1527 1527 1529 1530 1531 1531 1532 1532 1533 1534 1534 1534 1535 1535 1536 1536 1537 1538 1537 1538 1538 1538 1539 1540 1541 1542 1542 1543 1543 1544 1544 1544 1544 1545 1545 1545 1546 1547 1547 1548 1549 1549 1550 1550 1550 1551 1552 1553 1553 1553 1554 1555 1556 1558 1559 1560 1561 1562 1562 1563 1563 1564 1565 1566 1566 1566 1565 1565 1565 1565 1565 1564 1564 1564 1564 1565 1565 1565 1565 1565 1566 1566
1522 1523 1525 1526 1527 1528 1530 1530 1531 1531 1532 1533 1533 1533 1534 1534 1535 1535 1536 1536 1536 1537 1537 1537 1538 1539 1539 1539 1540 1541 1542 1543 1543 1543 1543 1543 1544 1544 1544 1545 1546 1546 1546 1547 1548 1549 1549 1549 1550 1550 1551 1551 1551 1552 1553 1555 1556 1558 1559 1560 1561 1562 1562 1562 1563 1564 1565 1565 1566 1566 1565 1565 1565 1565 1564 1564 1564 1564 1564 1565 1565 1565 1565 1565 1565
1522 1523 1524 1526 1527 1528 1529 1530 1530 1530 1531 1532 1532 1533 1533 1534 1534 1535 1535 1535 1535 1536 1537 1537 1537 1538 1538 1539 1540 1540 1541 1542 1542 1542 1542 1542 1543 1543 1543 1544 1544 1544 1544 1545 1546 1547 1548 1548 1548 1548 1548 1548 1549 1550 1552 1553 1554 1556 1557 1559 1560 1560 1562 1562 1562 1563 1564 1564 1565 1565 1565 1565 1564 1564 1564 1564 1564 1564 1564 1564 1564 1564 1564 1565 1565
1522 1523 1524 1526 1527 1528 1528 1529 1529 1530 1530 1531 1532 1532 1533 1533 1533 1534 1534 1534 1535 1536 1536 1536 1536 1537 1537 1538 1539 1539 1540 1540 1541 1541 1541 1541 1542 1542 1542 1542 1543 1543 1543 1544 1544 1546 1547 1547 1548 1548 1547 1548 1549 1549 1550 1551 1552 1553 1555 1556 1558 1559 1560 1561 1562 1562 1563 1563 1564 1565 1565 1565 1564 1564 1564 1564 1564 1564 1564 1564 1564 1564 1564 1564 1564
1522 1523 1524 1525 1526 1527 1528 1528 1529 1529 1530 1530 1531 1532 1532 1532 1532 1533 1533 1534 1534 1535 1535 1536 1536 1536 1537 1537 1538 1539 1539 1539 1539 1540 1541 1541 1541 1541 1541 1541 1541 1542 1542 1542 1543 1544 1545 1546 1547 1547 1547 1547 1548 1549 1549 1550 1551 1552 1553 1554 1555 1557 1558 1559 1560 1561 1562 1562 1563 1563 1563 1564 1564 1564 1564 1563 1563 1563 1563 1563 1563 1563 1564 1564 1564
1522 1523 1524 1525 1526 1526 1527 1527 1528 1528 1529 1530 1531 1531 1531 1532 1532 1532 1532 1533 1534 1534 1535 1535 1535 1536 1537 1537 1537 1537 1538 1538 1538 1539 1540 1540 1540 1539 1539 1540 1540 1540 1541 1541 1541 1542 1544 1545 1546 1546 1547 1547 1547 1548 1548 1549 1550 1550 1551 1552 1553 1554 1555 1557 1558 1560 1560 1561 1561 1562 1562 1562 1562 1563 1563 1563 1563 1563 1562 1563 1563 1563 1563 1563 1563
1522 1523 1524 1525 1525 1526 1526 1527 1527 1528 1529 1529 1530 1530 1531 1531 1531 1532 1532 1533 1534 1534 1535 1535 1535 1536 1536 1536 1536 1536 1537 1537 1538 1538 1538 1538 1538 1538 1538 1538 1538 1539 1539 1540 1540 1541 1542 1543 1544 1545 1545 1546 1547 1547 1547 1548 1549 1549 1550 1551 1551 1552 1553 1555 1556 1558 1559 1559 1560 1561 1561 1561 1561 1561 1561 1562 1562 1562 1562 1562 1562 1563 1562 1562 1563
1521 1522 1523 1524 1525 1526 1526 1527 1527 1527 1528 1529 1529 1530 1530 1531 1531 1532 1532 1532 1533 1534 1535 1535 1535 1535 1535 1535 1535 1536 1536 1537 1537 1537 1537 1537 1536 1536 1537 1537 1537 1538 1538 1539 1540 1540 1541 1542 1543 1543 1544 1545 1546 1546 1546 1547 1548 1548 1549 1549 1550 1550 1551 1552 1554 1555 1557 1558 1558 1559 1560 1560 1560 1560 1560 1560 1561 1561 1561 1561 1561 1561 1562 1562 1562
1520 1522 1523 1524 1524 1525 1526 1527 1527 1527 1528 1528 1529 1530 1530 1531 1531 1531 1532 1532 1533 1534 1534 1534 1534 1535 1534 1534 1534 1535 1535 1535 1536 1536 1536 1536 1535 1535 1535 1535 1536 1536 1537 1538 1538 1539 1540 1540 1541 1542 1543 1544 1544 1545 1545 1546 1547 1548 1548 1548 1549 1549 1550 1550 1552 1553 1554 1556 1557 1558 1558 1559 1559 1559 1559 1559 1560 1560 1560 1560 1560 1560 1561 1561 1561
1519 1521 1522 1523 1524 1525 1525 1526 1527 1527 1528 1528 1529 1530 1531 1531 1531 1532 1532 1533 1534 1534 1534 1534 1534 1534 1534 1534 1534 1534 1534 1534 1534 1535 1535 1534 1534 1534 1534 1534 1535 1535 1536 1537 1537 1538 1538 1538 1539 1540 1541 1541 1543 1543 1544 1545 1546 1546 1547 1548 1548 1548 1549 1549 1550 1551 1553 1554 1555 1556 1557 1558 1558 1558 1557 1558 1558 1559 1559 1559 1559 1559 1559 1560 1560
1518 1519 1520 1522 1523 1524 1525 1525 1526 1527 1527 1528 1529 1530 1531 1531 1532 1532 1533 1533 1534 1534 1534 1534 1534 1534 1534 1533 1533 1533 1533 1533 1533 1534 1534 1533 1534 1534 1534 1534 1534 1535 1535 1536 1536 1537 1537 1537 1538 1538 1539 1539 1541 1542 1543 1544 1544 1545 1546 1547 1547 1547 1548 1548 1549 1550 1551 1552 1553 1554 1555 1556 1556 1556 1556 1557 1557 1558 1558 1558 1558 1558 1559 1559 1559
1516 1517 1519 1520 1522 1523 1524 1525 1526 1527 1527 1528 1529 1529 1530 1531 1532 1532 1533 1534 1534 1534 1534 1534 1534 1533 1533 1533 1533 1533 1533 1532 1533 1533 1533 1534 1534 1534 1534 1535 1535 1535 1535 1535 1536 1536 1536 1536 1537 1537 1537 1538 1539 1541 1542 1543 1543 1544 1545 1545 1546 1546 1546 1547 1547 1548 1549 1551 1551 1552 1553 1554 1554 1555 1555 1555 1556 1556 1557 1557 1557 1557 1558 1558 1558
1514 1516 1517 1519 1520 1522 1523 1524 1525 1526 1526 1527 1528 1529 1529 1530 1531 1532 1532 1533 1533 1534 1534 1534 1534 1534 1533 1533 1533 1533 1533 1533 1533 1533 1534 1534 1534 1535 1535 1535 1535 1535 1535 1535 1535 1536 1536 1536 1536 1537 1537 1537 1538 1539 1540 1541 1541 1543 1544 1544 1544 1545 1546 1546 1546 1547 1547 1548 1550 1550 1551 1552 1553 1554 1554 1554 1554 1555 1555 1556 1556 1555 1555 1556 1557
1512 1514 1515 1517 1519 1520 1522 1523 1524 1525 1526 1526 1527 1528 1528 1529 1530 1531 1531 1532 1533 1533 1534 1534 1534 1534 1534 1533 1533 1533 1533 1533 1533 1534 1534 1534 1534 1535 1535 1535 1535 1535 1536 1535 1536 1536 1536 1536 1536 1536 1536 1536 1537 1538 1539 1539 1540 1541 1543 1543 1543 1544 1544 1545 1546 1546 1546 1547 1548 1549 1550 1551 1551 1552 1552 1553 1553 1553 1553 1554 1554 1554 1553 1554 1554
1510 1511 1513 1515 1517 1519 1521 1522 1524 1525 1525 1526 1526 1527 1528 1528 1529 1530 1531 1532 1532 1533 1534 1534 1534 1534 1534 1534 1533 1533 1533 1533 1534 1534 1534 1534 1534 1534 1535 1535 1535 1535 1536 1536 1536 1536 1536 1536 1536 1536 1536 1536 1537 1537 1538 1538 1539 1540 1541 1542 1542 1543 1543 1544 1545 1545 1545 1546 1546 1547 1549 1549 1550 1550 1551 1551 1552 1551 1551 1551 1552 1552 1552 1552 1552
1507 1509 1511 1513 1515 1518 1520 1521 1522 1523 1524 1525 1526 1526 1527 1528 1529 1530 1531 1532 1533 1534 1534 1534 1535 1535 1534 1534 1534 1534 1534 1534 1534 1534 1534 1534 1534 1534 1534 1535 1535 1535 1535 1536 1536 1536 1536 1536 1536 1536 1536 1536 1536 1537 1537 1538 1538 1539 1540 1540 1541 1542 1542 1543 1544 1544 1544 1544 1544 1545 1546 1546 1547 1549 1549 1550 1550 1550 1549 1549 1550 1550 1550 1550 1550
1505 1507 1509 1511 1514 1516 1518 1519 1521 1522 1523 1524 1525 1526 1526 1527 1529 1530 1531 1532 1533 1534 1534 1534 1535 1535 1535 1534 1534 1534 1534 1534 1534 1534 1534 1534 1534 1534 1534 1535 1535 1535 1535 1535 1535 1535 1535 1535 1535 1536 1536 1536 1537 1537 1537 1538 1538 1538 1538 1539 1539 1540 1541 1541 1542 1543 1543 1543 1543 1543 1544 1544 1546 1546 1547 1548 1548 1548 1547 1547 1548 1548 1549 1549 1549
1503 1505 1507 1509 1512 1514 1516 1518 1520 1521 1522 1523 1524 1525 1526 1527 1528 1529 1530 1532 1533 1533 1533 1534 1535 1535 1535 1535 1535 1535 1535 1535 1535 1534 1534 1534 1534 1534 1534 1534 1535 1535 1535 1535 1534 1534 1534 1534 1534 1535 1535 1536 1536 1537 1537 1538 1538 1537 1538 1538 1538 1539 1540 1540 1540 1541 1542 1542 1542 1543 1543 1544 1544 1544 1544 1545 1546 1546 1545 1545 1546 1547 1547 1547 1547
1501 1502 1504 1507 1509 1512 1514 1516 1518 1520 1521 1522 1523 1524 1525 1526 1528 1529 1530 1531 1532 1532 1533 1534 1534 1535 1535 1535 1535 1535 1535 1535 1535 1535 1535 1535 1535 1535 1535 1535 1535 1535 1535 1535 1535 1534 1534 1534 1534 1535 1535 1535 1535 1536 1537 1538 1538 1538 1538 1538 1538 1539 1540 1540 1540 1540 1541 1541 1542 1542 1542 1542 1542 1542 1542 1542 1543 1544 1544 1544 1544 1545 1546 1545 1546
1498 1500 1502 1505 1507 1509 1512 1514 1516 1518 1519 1521 1522 1523 1525 1526 1527 1528 1529 1530 1531 1532 1533 1533 1534 1534 1535 1535 1535 1535 1535 1536 1536 1536 1536 1536 1535 1535 1535 1535 1535 1536 1536 1535 1535 1535 1535 1535 1535 1535 1535 1535 1536 1536 1536 1537 1537 1537 1538 1538 1539 1540 1540 1540 1540 1540 1540 1541 1541 1541 1541 1540 1540 1540 1540 1540 1541 1541 1542 1542 1542 1542 1543 1544 1544
1494 1498 1500 1502 1505 1507 1510 1512 1515 1517 1518 1519 1521 1522 1523 1525 1526 1527 1528 1529 1530 1531 1532 1532 1533 1534 1534 1535 1535 1535 1536 1536 1536 1536 1536 1536 1536 1536 1536 1536 1536 1536 1536 1536 1535 1535 1535 1535 1535 1535 1535 1536 1536 1536 1536 1536 1536 1537 1537 1538 1538 1538 1539 1539 1540 1540 1540 1541 1541 1541 1541 1540 1540 1539 1538 1538 1539 1539 1539 1540 1539 1539 1540 1541 1542